Flag for Sudan Weather past 2 weeks in Khartoum, Sudan

Now
84 °F

Clear.


Feels Like: 86 °F
Forecast: 82 / 99 °F
Wind: 8 mph from South

Location: Khartoum Airport

Current Time: Sep 17, 2014 at 5:01:17 AM

Latest Report: Sep 17, 2014 at 4:00 AM


Visibility: 10 mi

Pressure: 29.83 "Hg

Humidity: 51%

Dew point: 64 °F

Location of KhartoumLocation

Historic Weather in Khartoum — Graph

°F

Khartoum temperature yesterday

Maximum temperature yesterday: 99 °F (at 5:00 PM)
Minimum temperature yesterday: 82 °F (at 5:00 AM)
Average temperature yesterday: 88 °F

Past Weeks' High & Low Weather Summary

 TemperatureHumidityPressure
High104 °F (Sep 7, 2:00 PM)94% (Sep 9, 6:00 AM)30.12 "Hg (Sep 9, 6:00 AM)
Low72 °F (Sep 9, 6:00 AM)18% (Sep 12, 4:00 PM)29.71 "Hg (Sep 5, 5:00 PM)
Average89 °F48%29.86 "Hg
* Reported Sep 2 4:00 AM — Sep 17 4:00 AM, Khartoum, Weather by CustomWeather, © 2014

Note: Actual official high and low records may vary slightly from our data, if they occured in-between our weather recording intervals... More about our weather records

Advertising

Khartoum weather history for previous 24 hours

 ConditionsComfort  
Time TempWeatherWind HumidityBarometerVisibility
4:00 AM
Sep 17
84 °FClear.8 mph51%29.83 "Hg10 mi
3:30 AMN/AClear.7 mphN/A29.83 "Hg10 mi
3:00 AM86 °FClear.8 mph46%29.83 "Hg10 mi
2:30 AMN/AClear.8 mphN/A29.83 "Hg10 mi
2:00 AM88 °FClear.6 mph43%29.83 "Hg10 mi
1:30 AMN/AClear.7 mphN/A29.86 "Hg10 mi
1:00 AM88 °FClear.6 mph43%29.86 "Hg10 mi
12:30 AMN/AClear.2 mphN/A29.86 "Hg10 mi
12:00 AM86 °FClear.3 mph49%29.86 "Hg10 mi
11:30 PM
Sep 16
N/AClear.5 mphN/A29.86 "Hg10 mi
11:00 PM86 °FClear.9 mph49%29.86 "Hg10 mi
10:30 PMN/AClear.7 mphN/A29.86 "Hg10 mi
10:00 PM88 °FClear.10 mph43%29.86 "Hg10 mi
9:30 PMN/AClear.13 mphN/A29.86 "Hg10 mi
8:30 PMN/AClear.9 mphN/A29.83 "Hg10 mi
7:30 PMN/AThunderstorms.7 mphN/AN/AN/A
7:00 PM95 °FThunderstorms. Overcast.3 mph30%29.77 "HgN/A
6:00 PM97 °FExtremely hot.3 mph27%29.77 "HgN/A
5:00 PM99 °FPassing clouds.3 mph27%29.77 "HgN/A
2:30 PMN/ASunny.7 mphN/A29.83 "Hg10 mi
11:30 AMN/ASunny.12 mphN/A29.89 "Hg10 mi
10:30 AMN/ASunny.12 mphN/A29.92 "Hg10 mi
10:00 AM86 °FSunny.15 mph52%29.92 "Hg10 mi
9:00 AM91 °FSunny.12 mph46%29.89 "Hg10 mi
8:30 AMN/ASunny.15 mphN/A29.92 "Hg10 mi
8:00 AM84 °FSunny.16 mph70%29.89 "Hg10 mi
7:30 AMN/A15 mphN/A29.89 "HgN/A
7:00 AM82 °FSunny.10 mph74%29.86 "Hg10 mi
6:30 AMN/A16 mphN/A29.86 "HgN/A
6:00 AM82 °FClear.10 mph74%29.89 "Hg10 mi
5:30 AMN/AClear.13 mphN/A29.86 "Hg10 mi
5:00 AM82 °FClear.17 mph74%29.86 "Hg10 mi
Weather by CustomWeather, © 2014

See weather overviewHow to use our weather pages